Flag for Germany Weather past 2 weeks in Paderborn, North Rhine-Westphalia, Germany

Now
59 °F

Light rain. Partly cloudy.


Feels Like: 58 °F
Forecast: 61 / 72 °F
Wind: 7 mph from East

Location: Paderborn / Lippstadt

Current Time: Sep 19, 2014 at 4:31:31 AM

Latest Report: Sep 19, 2014 at 3:50 AM


Visibility: 2 mi

Pressure: 29.89 "Hg

Humidity: 100%

Dew point: 59 °F

Location of PaderbornLocation

Historic Weather in Paderborn — Graph

°F

Paderborn temperature yesterday

Maximum temperature yesterday: 72 °F (at 11:20 AM)
Minimum temperature yesterday: 54 °F (at 5:50 AM)
Average temperature yesterday: 63 °F

Past Weeks' High & Low Weather Summary

 TemperatureHumidityPressure
High75 °F (Sep 6, 2:20 PM)100% (Sep 4, 5:20 AM)30.24 "Hg (Sep 4, 5:20 AM)
Low45 °F (Sep 12, 3:50 AM)50% (Sep 17, 4:20 PM)29.89 "Hg (Sep 6, 3:20 PM)
Average61 °F84%30.05 "Hg
* Reported Sep 4 3:20 AM — Sep 19 3:20 AM, Paderborn, Weather by CustomWeather, © 2014

Note: Actual official high and low records may vary slightly from our data, if they occured in-between our weather recording intervals... More about our weather records

Advertising

Paderborn weather history for previous 24 hours

 ConditionsComfort  
Time TempWeatherWind HumidityBarometerVisibility
3:20 AM
Sep 19
59 °FRain. Partly cloudy.1 mph100%29.92 "Hg2 mi
12:20 AM61 °FThunderstorms. Partly cloudy.6 mph100%29.92 "Hg4 mi
11:50 PM
Sep 18
61 °FThunderstorms. Passing clouds.6 mph100%29.92 "Hg5 mi
11:20 PM61 °FLight rain. Passing clouds.6 mph100%29.92 "HgN/A
10:50 PM61 °FRain. Passing clouds.6 mph100%29.92 "HgN/A
10:20 PM61 °FPassing clouds.5 mph100%29.92 "HgN/A
9:20 PM63 °FLight rain. Passing clouds.5 mph94%29.92 "HgN/A
8:50 PM63 °FLight rain. Passing clouds.6 mph100%29.92 "HgN/A
8:20 PM63 °FRain. Partly sunny.6 mph100%29.92 "Hg5 mi
7:50 PM63 °FRain. Partly sunny.8 mph100%29.92 "Hg5 mi
7:20 PM64 °FLight rain. Partly sunny.6 mph88%29.89 "Hg6 mi
6:50 PM64 °FScattered showers. Partly sunny.5 mph94%29.89 "HgN/A
6:20 PM66 °FScattered showers. Partly sunny.5 mph94%29.89 "HgN/A
5:50 PM64 °FPartly sunny.6 mph100%29.89 "HgN/A
5:20 PM66 °FScattered showers. Partly sunny.2 mph88%29.92 "HgN/A
4:50 PM66 °FSprinkles. Partly sunny.2 mph83%29.92 "HgN/A
4:20 PM68 °FScattered showers. Partly sunny.5 mph78%29.89 "HgN/A
3:50 PM70 °FScattered showers. Scattered clouds.3 mph64%29.89 "HgN/A
3:20 PM70 °FSunny.5 mph64%29.89 "Hg10 mi
2:50 PM72 °FPassing clouds.5 mph61%29.89 "HgN/A
2:20 PM70 °FPassing clouds.7 mph64%29.89 "HgN/A
1:50 PM72 °FSunny.9 mph61%29.89 "Hg10 mi
1:20 PM70 °FSunny.6 mph64%29.89 "Hg10 mi
12:50 PM72 °FPassing clouds.7 mph61%29.89 "HgN/A
12:20 PM72 °FSunny.8 mph61%29.89 "Hg10 mi
11:50 AM72 °FPassing clouds.7 mph61%29.89 "HgN/A
11:20 AM72 °FSunny.7 mph61%29.89 "Hg10 mi
10:50 AM70 °FPassing clouds.7 mph60%29.89 "HgN/A
10:20 AM68 °FSunny.9 mph69%29.89 "Hg10 mi
9:50 AM66 °FSunny.7 mph73%29.89 "Hg10 mi
9:20 AM63 °FSunny.7 mph83%29.89 "Hg10 mi
8:50 AM61 °FSunny.8 mph88%29.89 "Hg10 mi
8:20 AM59 °FSunny.6 mph94%29.89 "Hg10 mi
7:50 AM55 °FClear.8 mph100%29.89 "Hg10 mi
7:20 AM55 °FClear.8 mph100%29.89 "Hg10 mi
6:50 AM54 °FClear.8 mph100%29.89 "Hg10 mi
6:20 AM55 °FClear.8 mph94%29.89 "Hg10 mi
5:50 AM54 °FClear.8 mph100%29.89 "Hg10 mi
5:20 AM55 °FClear.8 mph94%29.89 "Hg10 mi
4:50 AM55 °FClear.8 mph94%29.89 "Hg10 mi
4:20 AM55 °FClear.8 mph100%29.89 "Hg10 mi
Weather by CustomWeather, © 2014

See weather overviewHow to use our weather pages